KE7JVX-3 Weather Reports


time (UTC)temp
C
wind
direction
speed
KPH
gust
KPH
rain 1hr
cm
rain 24hr
cm
rain mn
cm
humidity
%
barometer
mb
20260502220427 13 193 9.7 22.5 0.00 0.00 0.00 18 1012.9
20260502215427 13 159 3.2 9.7 0.00 0.00 0.00 18 1012.9
20260502214427 13 248 6.4 16.1 0.00 0.00 0.00 18 1013.0
20260502213427 13 213 6.4 17.7 0.00 0.00 0.00 21 1013.2
20260502212427 13 137 4.8 14.5 0.00 0.00 0.00 22 1013.2
20260502211428 13 154 8.0 14.5 0.00 0.00 0.00 21 1013.3
20260502210427 13 174 6.4 17.7 0.00 0.00 0.00 21 1013.5
20260502205427 13 226 6.4 19.3 0.00 0.00 0.00 22 1013.5
20260502204427 13 165 3.2 20.9 0.00 0.00 0.00 24 1013.6
20260502203427 12 179 4.8 17.7 0.00 0.00 0.00 28 1013.6
20260502202428 12 147 1.6 17.7 0.00 0.00 0.00 27 1013.8
20260502201427 12 105 3.2 17.7 0.00 0.00 0.00 29 1013.8
20260502200427 11 151 4.8 17.7 0.00 0.00 0.00 28 1013.8
20260502195427 11 159 3.2 17.7 0.00 0.00 0.00 30 1013.8
20260502194427 11 140 6.4 16.1 0.00 0.00 0.00 28 1013.7
20260502193427 11 142 4.8 14.5 0.00 0.00 0.00 33 1013.9
20260502192427 10 110 6.4 20.9 0.00 0.00 0.00 34 1013.9
20260502191427 11 116 8.0 16.1 0.00 0.00 0.00 35 1013.9
20260502190427 11 156 8.0 17.7 0.00 0.00 0.00 35 1014.0
20260502185427 11 160 3.2 25.7 0.00 0.00 0.00 35 1014.1
20260502184427 11 132 4.8 16.1 0.00 0.00 0.00 36 1014.1
20260502183427 10 112 4.8 20.9 0.00 0.00 0.00 39 1014.2
20260502182429 9 115 6.4 20.9 0.00 0.00 0.00 43 1014.2
20260502181427 9 111 8.0 19.3 0.00 0.00 0.00 43 1014.3
20260502180427 9 136 3.2 17.7 0.00 0.00 0.00 45 1014.3
20260502163427 6 111 16.1 25.7 0.00 0.00 0.00 56 1013.8
20260502162429 6 102 8.0 25.7 0.00 0.00 0.00 60 1013.7
20260502161427 6 100 14.5 24.1 0.00 0.00 0.00 60 1013.8
20260502160427 6 89 16.1 29.0 0.00 0.00 0.00 61 1013.7
20260502152226 5 99 19.3 38.6 0.00 0.00 0.00 65 1013.3
20260502151226 4 103 22.5 32.2 0.00 0.00 0.00 67 1013.1
20260502150228 4 97 19.3 33.8 0.00 0.00 0.00 67 1013.1
20260502130226 3 89 20.9 29.0 0.00 0.00 0.00 71 1012.2
20260502123225 2 81 12.9 27.4 0.00 0.00 0.00 72 1012.0
20260502122225 3 84 17.7 43.5 0.00 0.00 0.00 72 1011.8
20260502121226 3 80 16.1 32.2 0.00 0.00 0.00 71 1011.7
20260502120225 3 75 17.7 33.8 0.00 0.00 0.00 71 1011.7
20260502115226 3 90 19.3 40.2 0.00 0.00 0.00 71 1011.7
20260502114128 3 94 20.9 41.8 0.00 0.00 0.00 71 1011.9
20260502113128 3 92 17.7 33.8 0.00 0.00 0.00 71 1011.8
20260502112128 3 96 19.3 30.6 0.00 0.00 0.00 70 1012.0
20260502111128 3 89 12.9 41.8 0.00 0.00 0.00 70 1012.1
20260502110128 3 99 19.3 33.8 0.00 0.00 0.00 71 1011.9
20260502105128 3 75 14.5 35.4 0.00 0.00 0.00 70 1011.9
20260502104128 3 92 16.1 29.0 0.00 0.00 0.00 69 1012.0
20260502103128 3 90 16.1 33.8 0.00 0.00 0.00 68 1011.9
20260502102128 3 81 16.1 35.4 0.00 0.00 0.00 67 1011.9
20260502101128 4 85 12.9 32.2 0.00 0.00 0.00 63 1012.0
20260502100129 4 89 19.3 35.4 0.00 0.00 0.00 61 1011.8
20260502091132 5 82 19.3 33.8 0.00 0.00 0.00 32 1011.8
20260502090552 6 85 22.5 32.2 0.00 0.00 0.00 31 1011.8
20260502090133 6 85 22.5 32.2 0.00 0.00 0.00 31 1011.8
20260502071128 7 69 12.9 20.9 0.00 0.00 0.00 31 1012.1
20260502070128 7 67 9.7 19.3 0.00 0.00 0.00 30 1012.3
20260502065128 7 55 11.3 20.9 0.00 0.00 0.00 29 1012.3
20260502064128 7 53 11.3 19.3 0.00 0.00 0.00 30 1012.2
20260502063128 7 44 6.4 17.7 0.00 0.00 0.00 26 1012.3
20260502062128 8 54 9.7 19.3 0.00 0.00 0.00 20 1012.2
20260502061128 8 49 8.0 16.1 0.00 0.00 0.00 19 1012.1
20260502060128 8 39 6.4 14.5 0.00 0.00 0.00 17 1012.0
20260502055128 8 36 6.4 12.9 0.00 0.00 0.00 13 1012.0
20260502054556 8 354 3.2 9.7 0.00 0.00 0.00 11 1012.0
20260502054128 8 354 3.2 9.7 0.00 0.00 0.00 11 1012.0
20260502052722 8 333 6.4 12.9 0.00 0.00 0.00 13 1011.9
20260502051722 8 328 8.0 16.1 0.00 0.00 0.00 15 1011.9
20260502050721 8 324 8.0 14.5 0.00 0.00 0.00 16 1011.9
20260502045722 8 321 9.7 16.1 0.00 0.00 0.00 19 1011.8
20260502044721 8 317 11.3 16.1 0.00 0.00 0.00 23 1011.7
20260502043722 8 315 8.0 17.7 0.00 0.00 0.00 24 1011.7
20260502042725 8 313 11.3 16.1 0.00 0.00 0.00 29 1011.6
20260502041722 8 313 11.3 16.1 0.00 0.00 0.00 29 1011.6
20260502041206 8 307 14.5 19.3 0.00 0.00 0.00 27 1011.5
20260502040728 8 307 14.5 19.3 0.00 0.00 0.00 27 1011.5
20260502035722 7 311 16.1 20.9 0.00 0.00 0.00 27 1011.3
20260502034721 8 312 11.3 17.7 0.00 0.00 0.00 27 1011.2
20260502033723 8 306 11.3 24.1 0.00 0.00 0.00 26 1011.2
20260502032722 8 311 17.7 24.1 0.00 0.00 0.00 27 1010.9
20260502031721 8 307 12.9 27.4 0.00 0.00 0.00 27 1011.0
20260502030721 8 306 16.1 24.1 0.00 0.00 0.00 26 1010.7
20260502025722 8 309 14.5 29.0 0.00 0.00 0.00 26 1010.8
20260502024724 8 299 16.1 27.4 0.00 0.00 0.00 27 1010.5
20260502023723 8 294 19.3 27.4 0.00 0.00 0.00 27 1010.5
20260502022248 8 289 20.9 32.2 0.00 0.00 0.00 26 1010.3
20260502021723 8 289 20.9 32.2 0.00 0.00 0.00 26 1010.3
20260502015723 8 264 8.0 25.7 0.00 0.00 0.00 25 1010.3
20260502014722 9 276 9.7 27.4 0.00 0.00 0.00 24 1010.2
20260502013722 9 276 17.7 30.6 0.00 0.00 0.00 23 1010.1
20260502012721 10 259 12.9 38.6 0.00 0.00 0.00 23 1010.0
20260502011723 10 271 22.5 32.2 0.00 0.00 0.00 23 1010.0
20260502010721 10 270 14.5 37.0 0.00 0.00 0.00 23 1009.9
20260502005724 10 282 22.5 32.2 0.00 0.00 0.00 22 1009.9
20260502004723 11 269 11.3 25.7 0.00 0.00 0.00 22 1009.8
20260502003724 11 288 12.9 33.8 0.00 0.00 0.00 22 1009.9
20260502002721 10 268 19.3 37.0 0.00 0.00 0.00 21 1009.9
20260502001722 10 240 22.5 45.1 0.00 0.00 0.00 20 1009.7
20260502000722 11 264 22.5 38.6 0.00 0.00 0.00 20 1009.9
20260501235722 11 266 25.7 41.8 0.00 0.00 0.00 20 1009.8
20260501234721 11 261 24.1 38.6 0.00 0.00 0.00 21 1009.7
20260501233721 11 253 11.3 43.5 0.00 0.00 0.00 19 1009.9
20260501232721 11 269 17.7 33.8 0.00 0.00 0.00 19 1009.8
20260501231722 11 246 14.5 37.0 0.00 0.00 0.00 21 1009.8
20260501225721 11 251 19.3 30.6 0.00 0.00 0.00 23 1009.8
20260501224722 11 278 20.9 37.0 0.00 0.00 0.00 22 1009.8
20260501223722 10 239 12.9 33.8 0.00 0.00 0.00 24 1009.9
20260501222724 11 275 20.9 41.8 0.00 0.00 0.00 24 1009.9
20260501221721 11 264 22.5 40.2 0.00 0.00 0.00 24 1009.9